This is the latest recevied weather packets stored in our database for station/object KD4MBW. If no packets are shown the sender has not sent any weather packets the latest 10 day(s).
| Time | Temp. | Humidity | Pressure | Rain* | Wind** | Luminosity | Snow |
|---|---|---|---|---|---|---|---|
| 1777254711 | 22.22° C | 89% | 1013.3 hPa | 0 mm | - | 0 W/m² | - |
| 1777254407 | 22.22° C | 88% | 1013.3 hPa | 0 mm | - | 0 W/m² | - |
| 1777254103 | 22.78° C | 88% | 1013 hPa | 0 mm | - | 0 W/m² | - |
| 1777253800 | 22.22° C | 87% | 1013 hPa | 0 mm | - | 0 W/m² | - |
| 1777253497 | 22.22° C | 87% | 1013.1 hPa | 0 mm | - | 0 W/m² | - |
| 1777253195 | 22.22° C | 86% | 1013 hPa | 0 mm | - | 0 W/m² | - |
| 1777252893 | 22.78° C | 86% | 1013 hPa | 0 mm | - | 0 W/m² | - |
| 1777252589 | 23.33° C | 84% | 1012.7 hPa | 0 mm | - | 0 W/m² | - |
| 1777252286 | 23.33° C | 83% | 1012.6 hPa | 0 mm | - | 0 W/m² | - |
| 1777251984 | 23.89° C | 82% | 1012.6 hPa | 0 mm | - | 0 W/m² | - |
| 1777251681 | 23.89° C | 82% | 1012.7 hPa | 0 mm | - | 0 W/m² | - |
| 1777251378 | 23.89° C | 81% | 1012.6 hPa | 0 mm | - | 0 W/m² | - |
| 1777251073 | 23.89° C | 81% | 1012.2 hPa | 0 mm | - | 0 W/m² | - |
| 1777250770 | 23.89° C | 81% | 1012.5 hPa | 0 mm | - | 0 W/m² | - |
| 1777250467 | 23.89° C | 79% | 1012.1 hPa | 0 mm | - | 0 W/m² | - |
| 1777250162 | 24.44° C | 79% | 1012.3 hPa | 0 mm | - | 0 W/m² | - |
| 1777249859 | 24.44° C | 78% | 1012.2 hPa | 0 mm | - | 0 W/m² | - |
| 1777249549 | 24.44° C | 77% | 1012.3 hPa | 0 mm | - | 1 W/m² | - |
| 1777249245 | 25° C | 76% | 1012.1 hPa | 0 mm | - | 2 W/m² | - |
| 1777248943 | 25° C | 76% | 1012.1 hPa | 0 mm | - | 4 W/m² | - |
| 1777248639 | 25° C | 75% | 1012 hPa | 0 mm | - | 7 W/m² | - |
| 1777248330 | 25.56° C | 74% | 1012 hPa | 0 mm | - | 12 W/m² | - |
| 1777248026 | 25.56° C | 74% | 1011.6 hPa | 0 mm | - | 17 W/m² | - |
| 1777247720 | 25.56° C | 74% | 1011.8 hPa | 0 mm | - | 24 W/m² | - |
| 1777247418 | 26.11° C | 72% | 1011.6 hPa | 0 mm | - | 31 W/m² | - |
* Rain latest hour (hover to see other rain measurements)
** Current wind speed in m/s (hover to see current wind gust speed)